Hourly Data Report for February 23, 2003

TORONTO CITY
ONTARIO

43°40'00.000" N
79°24'00.000" W
112.50 m
6158355
71508
XTO

Download Data

Hourly Data (February 2003)
Hourly Data Report for February 23, 2003
TIME
LST
Temp Definition
°C
Dew Point Definition
°C
Rel Hum Definition
%
Precip. Amount Definition
mm

Wind Dir Definition
10's deg

Wind Spd Definition
km/h
Visibility Definition
km
Stn Press Definition
kPa
Hmdx Definition


Wind Chill Definition


Weather Definition


00:00 -1.8 -2.3 96   LegendMM LegendMM LegendMM 97.69     LegendNANA
01:00 -2.4 -2.9 96   LegendMM LegendMM LegendMM 97.54     LegendNANA
02:00 -2.7 -3.3 96   LegendMM LegendMM LegendMM 97.51     LegendNANA
03:00 -3.3 -4.1 94   LegendMM LegendMM LegendMM 97.53     LegendNANA
04:00 -4.3 -5.2 93   LegendMM LegendMM LegendMM 97.52     LegendNANA
05:00 -4.8 -5.7 93   LegendMM LegendMM LegendMM 97.50     LegendNANA
06:00 -6.0 -7.5 89   LegendMM LegendMM LegendMM 97.61     LegendNANA
07:00 -7.3 -8.6 90   LegendMM LegendMM LegendMM 97.69     LegendNANA
08:00 -8.1 -9.7 88   LegendMM LegendMM LegendMM 97.87     LegendNANA
09:00 -9.0 -10.6 88   LegendMM LegendMM LegendMM 98.02     LegendNANA
10:00 -9.1 -11.1 85   LegendMM LegendMM LegendMM 98.18     LegendNANA
11:00 -9.1 -11.7 81   LegendMM LegendMM LegendMM 98.32     LegendNANA
12:00 -8.3 -11.1 80   LegendMM LegendMM LegendMM 98.47     LegendNANA
13:00 -7.9 -11.3 77   LegendMM LegendMM LegendMM 98.60     LegendNANA
14:00 -6.9 -10.5 75   LegendMM LegendMM LegendMM 98.73     LegendNANA
15:00 -6.6 -10.2 76   LegendMM LegendMM LegendMM 98.95     LegendNANA
16:00 -7.2 -11.3 72   LegendMM LegendMM LegendMM 99.15     LegendNANA
17:00 -7.4 -12.2 68   LegendMM LegendMM LegendMM 99.37     LegendNANA
18:00 -8.3 -13.6 66   LegendMM LegendMM LegendMM 99.60     LegendNANA
19:00 -8.9 -14.2 65   LegendMM LegendMM LegendMM 99.75     LegendNANA
20:00 -9.0 -14.7 63   LegendMM LegendMM LegendMM 99.98     LegendNANA
21:00 -8.8 -15.0 61   LegendMM LegendMM LegendMM 100.23     LegendNANA
22:00 -9.2 -15.2 62   LegendMM LegendMM LegendMM 100.34     LegendNANA
23:00 -9.7 -16.3 59   LegendMM LegendMM LegendMM 100.42     LegendNANA

Notes on Data Quality.

Legend

  • E = Estimated
  • M = Missing
  • NA = Not Available*
  • [empty] = Indicates an unobserved value
Date modified: